AO-07 1 07530U 74089B 19136.51976135 -.00000045 00000-0 -17094-5 0 9997 2 07530 101.7412 104.5247 0012560 52.1771 62.7257 12.53638072 36367 UO-11 1 14781U 84021B 19136.30332521 .00000101 00000-0 18483-4 0 9995 2 14781 97.6135 162.5962 0009998 73.0227 287.2082 14.83083907893812 LO-19 1 20442U 90005G 19136.08223527 -.00000003 00000-0 15232-4 0 9996 2 20442 98.6465 78.1428 0010647 246.7153 113.2911 14.32924671531565 HUBBLE 1 20580U 90037B 19136.88280640 .00000487 00000-0 18763-4 0 9998 2 20580 28.4698 68.8823 0002912 129.8672 304.4888 15.09223882395921 MET-2/21 1 22782U 93055A 19136.27217610 .00000000 00000-0 -13065-4 0 9999 2 22782 82.5501 189.5929 0020843 272.1952 156.5429 13.83817538298246 AO-27 1 22825U 93061C 19136.47564584 .00000004 00000-0 19360-4 0 9998 2 22825 98.9019 124.3577 0009533 95.0975 265.1294 14.30058322337203 IO-26 1 22826U 93061D 19136.48505226 -.00000004 00000-0 16359-4 0 9994 2 22826 98.8959 124.3629 0010068 85.2913 274.9418 14.30391672337408 FO-29 1 24278U 96046B 19136.42277719 -.00000002 00000-0 36565-4 0 9999 2 24278 98.5325 294.3532 0349776 326.4496 31.4923 13.53090995123300 NOAA-15 1 25338U 98030A 19136.22583193 .00000073 00000-0 49284-4 0 9995 2 25338 98.7492 157.5482 0010007 346.8565 13.2352 14.25907547 92482 GO-32 1 25397U 98043D 19136.37661431 -.00000028 00000-0 67488-5 0 9990 2 25397 98.6869 76.9285 0002228 111.9875 248.1540 14.23665175 83136 ISS 1 25544U 98067A 19136.87606988 .00001918 00000-0 37995-4 0 9998 2 25544 51.6418 156.7644 0001513 1.2176 59.1588 15.52681763170397 NO-44 1 26931U 01043C 19136.50111015 -.00000025 00000-0 22079-4 0 9995 2 26931 67.0512 89.3266 0006324 280.0298 80.0089 14.30541692920227 SO-50 1 27607U 02058C 19136.54028736 .00000019 00000-0 23441-4 0 9990 2 27607 64.5532 150.9524 0082211 262.8501 96.3249 14.75545069882145 CO-55 1 27844U 03031E 19135.46074783 .00000072 00000-0 52041-4 0 9995 2 27844 98.6848 144.1850 0010859 126.2367 233.9816 14.22175785823426 CO-57 1 27848U 03031J 19136.00613611 .00000046 00000-0 40708-4 0 9997 2 27848 98.6926 145.2150 0010599 135.0661 225.1376 14.21771125823353 RS-22 1 27939U 03042A 19136.75802199 .00000176 00000-0 40139-4 0 9995 2 27939 98.0342 273.2250 0013143 166.2051 193.9520 14.66778363835716 NOAA-18 1 28654U 05018A 19136.34167719 .00000100 00000-0 79380-4 0 9999 2 28654 99.0990 182.8056 0013161 271.0917 88.8746 14.12423485720804 CO-58 1 28895U 05043F 19135.39545934 .00000155 00000-0 38528-4 0 9996 2 28895 97.9540 279.3124 0018247 99.7094 260.6170 14.63659066722476 Falconsat-3 1 30776U 07006E 19135.89242050 .00003075 00000-0 86829-4 0 9997 2 30776 035.4354 306.3692 0002335 187.1089 172.9605 15.36066020675484 CO-65 1 32785U 08021C 19136.20387520 .00000294 00000-0 37409-4 0 9995 2 32785 97.5495 137.4986 0013615 20.9279 339.2493 14.88296111598702 AAUSAT2 1 32788U 08021F 19136.04356456 .00000616 00000-0 61758-4 0 9996 2 32788 97.4985 153.2614 0010586 318.9571 41.0852 14.94694019599895 DO-64 1 32789U 08021G 19136.15113748 .00001982 00000-0 13676-3 0 9996 2 32789 97.4672 186.8248 0010925 234.9658 125.0545 15.06879493601918 CO-66 1 32791U 08021J 19136.47995901 .00000396 00000-0 45530-4 0 9996 2 32791 97.5286 143.6996 0013157 356.1072 4.0043 14.90800108599162 RS-30 1 32953U 08025A 19136.72661358 .00000020 00000-0 75656-4 0 9990 2 32953 82.5017 165.2638 0018735 197.4399 162.6041 12.43089441498214 PRISM 1 33493U 09002B 19136.36726241 .00000521 00000-0 51302-4 0 9997 2 33493 98.1221 56.0578 0014087 296.3925 63.5849 14.96617709560167 NOAA-19 1 33591U 09005A 19136.46391599 .00000089 00000-0 73418-4 0 9995 2 33591 99.1789 126.7860 0014962 110.2529 250.0251 14.12351201529223 TISAT-1 1 36799U 10035E 19136.46483208 .00000311 00000-0 37450-4 0 9996 2 36799 98.1514 287.5244 0012111 188.4541 171.6474 14.91080515479816 JUGNU 1 37839U 11058B 19136.22135575 .00000325 00000-0 31530-4 0 9991 2 37839 19.9597 177.7446 0018831 318.7513 298.1085 14.12650212392514 SRMSAT 1 37841U 11058D 19135.29630198 .00000307 00000-0 23634-4 0 9997 2 37841 19.9714 239.4202 0011721 178.2754 45.2773 14.10631485391839 AO-71 1 37854U 11061E 19135.88535618 .00001550 00000-0 86657-4 0 9996 2 37854 101.7060 016.7608 0161016 166.2134 194.3554 15.06334650411459 HRBE 1 37855U 11061F 19136.23419345 .00001069 00000-0 61387-4 0 9993 2 37855 101.7192 14.6558 0173757 175.9448 184.3220 15.05339191411742 ALMASAT-1 1 38078U 12006B 19136.03355704 .00045181 45718-5 25918-3 0 9999 2 38078 69.4279 2.5467 0168315 313.9526 153.7613 15.61617599392237 HORYU-2 1 38340U 12025D 19136.35129941 .00000208 00000-0 38506-4 0 9998 2 38340 98.3321 173.9360 0010561 225.2676 134.7673 14.75706204376247 RS-40 1 38735U 12041C 19135.73013228 .00000041 00000-0 22747-3 0 9999 2 38735 82.4759 249.2508 0016075 312.1674 47.8051 12.42578567308335 BEESAT-3 1 39135U 13015F 19136.32875427 .00001337 00000-0 76266-4 0 9994 2 39135 64.8653 146.3540 0016150 324.2680 35.7364 15.17392410335187 BEESAT-2 1 39136U 13015G 19136.35329350 .00001076 00000-0 64273-4 0 9992 2 39136 64.8678 149.9952 0016956 309.3990 50.5633 15.16833739335113 ZACUBE-1 1 39417U 13066B 19136.19600146 .00000272 00000-0 40378-4 0 9994 2 39417 97.5641 151.5780 0059970 142.6141 217.9269 14.81099600296083 TRITON-1 1 39427U 13066M 19136.18869305 .00000199 00000-0 40112-4 0 9992 2 39427 97.6738 115.6417 0112276 272.8497 85.9863 14.67825730293422 GOMX-1 1 39430U 13066Q 19136.77785729 .00000685 00000-0 13291-3 0 9995 2 39430 97.7437 95.5045 0151533 358.6216 1.4610 14.59240110291804 LO-74 1 39440U 13066AA 19136.59719092 .00000219 00000-0 37355-4 0 9997 2 39440 97.6019 136.9899 0079966 191.3839 168.5566 14.75838853295094 AO-73 1 39444U 13066AE 19136.28255562 .00000345 00000-0 48583-4 0 9999 2 39444 97.5624 153.5721 0059251 136.4469 224.1446 14.81915004294986 SPROUT 1 39770U 14029E 19136.86794097 -.00000363 00000-0 -34085-4 0 9990 2 39770 97.8811 240.3834 0008254 186.2205 173.8763 14.87298731269955 DUCHIFAT-1 1 40021U 14033M 19136.38298297 .00000414 00000-0 48102-4 0 9994 2 40021 97.9240 60.8676 0013387 153.6436 206.5466 14.90602412266588 NANOSATCBR1 1 40024U 14033Q 19136.32509516 .00000451 00000-0 52909-4 0 9991 2 40024 97.9141 58.3163 0012588 157.0147 203.1636 14.89820226266476 EO-79 1 40025U 14033R 19136.23289609 .00000297 00000-0 37604-4 0 9993 2 40025 97.9067 55.9701 0012707 162.9177 197.2470 14.88923547266340 DTUSAT-2 1 40030U 14033W 19136.35426230 .00000251 00000-0 33031-4 0 9995 2 40030 97.8990 54.3068 0012299 157.8596 202.3154 14.88518096266293 EO-80 1 40032U 14033Y 19136.82909614 .00000260 00000-0 34028-4 0 9998 2 40032 97.8996 54.7810 0012280 157.0421 203.1346 14.88460248266353 ANTELSAT 1 40034U 14033AA 19136.85175697 .00000226 00000-0 40952-4 0 9994 2 40034 97.7655 5.4164 0058066 201.1599 158.7208 14.74087823263831 VELOX-1 1 40057U 14034E 19136.69929953 .00000624 00000-0 94852-4 0 9994 2 40057 98.2287 259.0847 0010582 346.9873 13.1094 14.77646090262894 DAURIA DX 1 1 40071U 14037C 19136.79280191 .00001209 00000-0 16253-3 0 9996 2 40071 98.4205 289.0065 0007859 338.7983 21.2898 14.81266361262381 UKUBE-1 1 40074U 14037F 19136.72715613 .00000893 00000-0 11432-3 0 9996 2 40074 98.4355 296.8249 0003298 345.8837 14.2321 14.84032622262769 HODOYOSHI-1 1 40299U 14070B 19136.86931214 .00000252 00000-0 13534-4 0 9999 2 40299 97.3486 217.3044 0013427 151.2529 301.2811 15.23326836251278 CHUBUSAT-1 1 40300U 14070C 19136.79841274 .00000407 00000-0 20752-4 0 9992 2 40300 97.3230 211.8053 0019257 167.3521 333.4976 15.22040586251019 QSAT-EOS 1 40301U 14070D 19136.72053832 .00002538 00000-0 10115-3 0 9999 2 40301 97.3264 214.5778 0026234 151.9773 307.4170 15.25821677251267 FIREBIRD FU3 1 40377U 15003B 19136.87406253 .00001542 00000-0 64778-4 0 9993 2 40377 99.1104 110.4053 0127003 199.3245 160.3145 15.18655899236948 FIREBIRD FU4 1 40378U 15003C 19136.86136723 .00001488 00000-0 62635-4 0 9994 2 40378 99.1106 110.4646 0127234 199.2624 160.3772 15.18661340236949 NO-84 1 40654U 15025D 19135.07533560 .00009622 00000 0 14016-3 0 6158 2 40654 54.9912 330.5764 0136244 236.3204 122.4775 15.46486100107099 NO-83 1 40655U 15025E 19135.30375260 .00052226 00000 0 29150-3 0 7374 2 40655 54.9675 222.0324 0060867 305.2936 54.2582 15.76219672108290 GRIFEX 1 40379U 15003D 19136.84682514 .00001013 00000-0 47587-4 0 9990 2 40379 99.1102 104.7165 0134809 217.3091 141.8716 15.15388582236611 DEORBITSAIL 1 40719U 15032E 19136.52232178 .00000448 00000-0 71042-4 0 9996 2 40719 97.9122 29.0148 0017788 55.4450 304.8436 14.76711938207364 NUDT-PHONESAT 1 40900U 15049B 19136.78511997 .00003380 00000-0 14800-3 0 9999 2 40900 97.4374 146.4459 0011717 306.3608 139.4845 15.22665024202657 XW-2A 1 40903U 15049E 19136.75155515 .00002871 00000-0 69895-4 0 9998 2 40903 97.3411 179.3244 0012007 264.7336 231.9890 15.41730754205178 XW-2C 1 40906U 15049H 19136.72306387 .00000493 00000-0 29383-4 0 9999 2 40906 97.4670 139.3512 0013645 319.2646 127.3054 15.15632826202003 XW-2D 1 40907U 15049J 19136.76441081 .00001183 00000-0 65315-4 0 9997 2 40907 97.4654 139.0682 0013113 317.3244 94.7543 15.15817620202023 LILACSAT-2 1 40908U 15049K 19136.74054074 .00000733 00000-0 44179-4 0 9993 2 40908 97.4778 137.9534 0014579 321.3623 125.4047 15.13778531201820 XW-2E 1 40909U 15049L 19136.74283060 .00001985 00000-0 10163-3 0 9998 2 40909 97.4596 141.7668 0012299 312.8113 133.3741 15.17717446202198 XW-2F 1 40910U 15049M 19136.82782587 .00002524 00000-0 13002-3 0 9992 2 40910 97.4617 141.0469 0013741 309.4884 128.2361 15.17232503202036 XW-2B 1 40911U 15049N 19136.73571934 .00000939 00000-0 52639-4 0 9993 2 40911 97.4673 139.6787 0012701 317.7452 127.9541 15.15750089201917 DCBB 1 40912U 15049P 19136.71307868 .00001764 00000-0 86106-4 0 9998 2 40912 97.4501 144.4964 0013473 290.9272 157.6242 15.19531646202300 TW-1C 1 40926U 15051B 19136.83958432 .00017310 00000-0 25806-3 0 9991 2 40926 97.1390 183.0653 0009465 126.9164 321.1171 15.55097552205053 TW-1A 1 40928U 15051D 19136.82324586 .00004999 00000-0 12469-3 0 9999 2 40928 97.1489 168.8546 0010561 184.3408 261.5090 15.40591326204119 IO-86 1 40931U 15052B 19134.83444469 .00001428 00000-0 10967-3 0 9991 2 40931 5.9799 305.1479 0015267 43.6192 316.6223 14.76616356196108 LQSat 1 40958U 15057A 19136.21212001 -.00000027 00000-0 34767-5 0 9995 2 40958 97.8962 206.3021 0018789 352.6286 7.4585 14.73076896193876 AO-85 1 40967U 15058D 19135.30598516 .00000831 00000 0 10408-3 0 6883 2 40967 64.7759 262.7867 0203758 213.6811 145.1222 14.75935319102660 ATHENOXAT-1 1 41168U 15077C 19134.25258719 .00002290 00000-0 86603-4 0 9997 2 41168 14.9876 115.7768 0011562 321.2479 38.7013 15.13558945188606 ChubuSat-2 1 41338U 16012B 19135.89033874 .00000412 00000-0 25378-4 0 9996 2 41338 031.0040 359.5791 0013694 128.9238 231.2620 15.00139782177832 ChubuSat-3 1 41339U 16012C 19136.86174202 .00000583 00000-0 38595-4 0 9990 2 41339 31.0128 351.5341 0013391 144.9902 215.1521 15.00317886177972 Horyu-4 1 41340U 16012D 19135.86191189 .00000611 00000-0 39722-4 0 9999 2 41340 31.0058 349.6313 0013939 154.1431 205.9903 15.01245248177920 OUFTI-1 1 41458U 16025C 19135.89773985 .00002787 00000-0 14390-3 0 9995 2 41458 098.1020 221.0281 0168526 110.5845 251.3550 15.05721776167480 e-st@r-II 1 41459U 16025D 19136.77033381 .00003275 00000-0 16934-3 0 9992 2 41459 98.1021 221.6278 0169682 109.1511 252.8118 15.05377235167597 AAUSAT4 1 41460U 16025E 19136.18922754 .00005810 00000-0 29181-3 0 9995 2 41460 98.0960 222.1738 0159397 104.0103 257.8969 15.07217660167620 LO-87 1 41557U 16033B 19136.82416461 .00001491 00000-0 58656-4 0 9996 2 41557 97.4174 224.5176 0015279 58.5808 301.6923 15.27135242165076 NuSat2 1 41558U 16033C 19136.83413650 .00001563 00000-0 58001-4 0 9999 2 41558 97.4199 225.4672 0014351 59.9332 300.3329 15.29038875165119 Lapan A3 1 41603U 16040E 19135.93260334 -.00000059 00000-0 39020-6 0 9999 2 41603 97.3631 195.4731 0013800 150.8677 295.8734 15.19702399160619 Swayam 1 41607U 16040J 19136.16310762 .00002005 00000-0 87525-4 0 9993 2 41607 97.3681 198.8321 0014603 143.7475 216.4755 15.23200376160771 Pratham 1 41783U 16059A 19136.15486054 .00000069 00000-0 22470-4 0 9991 2 41783 98.0700 196.4721 0034770 128.2326 232.2014 14.62990051140640 AlSat 1N 1 41789U 16059G 19136.71879205 -.00000301 00000-0 -47850-4 0 9993 2 41789 98.0728 198.9469 0029668 117.1060 243.3161 14.64236773140826 ScatSat 1 41790U 16059H 19136.20359600 .00000022 00000-0 16659-4 0 9992 2 41790 98.2123 182.0865 0018935 145.9567 214.2846 14.50877916139470 TY-1 1 41844U 16066D 19136.74330450 .00001504 00000-0 64514-4 0 9990 2 41844 97.4050 144.5046 0013709 308.9329 137.1294 15.24229256139677 Pegasus-1 1 41846U 16066F 19136.05243302 .00000250 00000-0 48938-4 0 9994 2 41846 98.7145 175.7051 0367067 338.5856 20.0303 14.37550366131724 CAS-2T 1 41847U 16066G 19136.20981523 .00000067 00000-0 21233-4 0 9991 2 41847 98.7091 176.3928 0365418 334.7361 23.6335 14.37980448132185 EO-88 1 42017U 17008BX 19136.11262945 .00001953 00000-0 80130-4 0 9994 2 42017 97.4052 203.5500 0004541 293.2462 66.8297 15.25432261124804 ZA-AeroSat 1 42713U 98067LU 19136.80564206 .00416815 94323-4 50917-3 0 9993 2 42713 51.6244 73.9002 0002433 137.8523 222.2677 16.07447079114237 NJUST-1 1 42722U 98067MB 19136.80045660 .00149667 19616-4 42936-3 0 9993 2 42722 51.6325 82.9083 0005690 75.6241 10.2620 15.92846382113189 nSIGHT1 1 42726U 98067MF 19136.50051984 .00023390 00000-0 19331-3 0 9990 2 42726 51.6349 118.3367 0006237 49.2890 310.8649 15.70160050112606 Aoxiang-1 1 42735U 98067MQ 19136.79453660 .00188785 25488-4 42352-3 0 9998 2 42735 51.6249 79.6702 0005188 92.3984 354.1674 15.97321726114355 CAS-4B 1 42759U 17034B 19136.77660039 .00000914 00000-0 69402-4 0 9999 2 42759 43.0182 51.5573 0010082 38.8070 6.1954 15.09566345105869 CAS-4A 1 42761U 17034D 19136.75092894 .00000644 00000-0 52817-4 0 9990 2 42761 43.0198 51.2595 0010379 40.3283 56.4164 15.09644094105851 UCLSat 1 42765U 17036A 19136.74534800 .00001445 00000-0 64967-4 0 9992 2 42765 97.3538 195.4552 0011140 354.8215 5.2904 15.22667896105454 NIUSat 1 42766U 17036B 19136.21702745 .00001288 00000-0 60959-4 0 9992 2 42766 97.3537 193.4448 0015073 344.2231 15.8533 15.21043986105144 LituanicaSAT 2 1 42768U 17036D 19136.72470567 .00002302 00000-0 10161-3 0 9991 2 42768 97.3573 195.0204 0014351 342.7197 17.3550 15.22669818105297 Aalto 1 1 42775U 17036L 19135.72255638 .00001049 00000-0 49906-4 0 9995 2 42775 097.3525 193.2809 0013478 346.6645 013.4233 15.21283347105049 URSA MAIOR 1 42776U 17036M 19136.21237748 .00001137 00000-0 53648-4 0 9999 2 42776 97.3533 193.8960 0013226 344.9982 15.0860 15.21412599105125 Max Valier Sat 1 42778U 17036P 19136.72141152 .00001188 00000-0 55074-4 0 9991 2 42778 97.3570 195.1094 0011816 348.6328 11.4640 15.21954011105226 Pegasus 1 42784U 17036V 19136.10700993 .00001435 00000-0 65001-4 0 9990 2 42784 97.3543 194.6626 0011785 357.0404 3.0760 15.22416632105157 NUDATSat 1 42787U 17036Y 19136.78256111 .00001683 00000-0 73705-4 0 9990 2 42787 97.3570 195.9461 0012962 350.0543 10.0449 15.23335358105132 SUCHAI 1 1 42788U 17036Z 19135.40029203 .00002210 00000-0 97352-4 0 9990 2 42788 97.3548 194.2466 0011395 359.3218 0.8001 15.22817329105138 SKCUBE 1 42789U 17036AA 19135.74245231 .00001652 00000-0 73721-4 0 9992 2 42789 097.3544 194.5314 0011212 358.3075 001.8122 15.22723303105108 VZLUSAT 1 1 42790U 17036AB 19135.91544417 .00002191 00000-0 95088-4 0 9990 2 42790 097.3558 195.1004 0010716 357.3809 002.7370 15.23344327105156 VENTA 1 1 42791U 17036AC 19135.12547301 .00001732 00000-0 77126-4 0 9992 2 42791 097.3543 193.9785 0010992 001.1603 358.9657 15.22740719105007 Robusta 1B 1 42792U 17036AD 19136.20262804 .00001671 00000-0 74188-4 0 9992 2 42792 97.3544 195.1206 0010767 357.7793 2.3394 15.22888247105198 D-SAT 1 42794U 17036AF 19135.38154133 .00000214 00000-0 24324-4 0 9996 2 42794 97.5430 181.5871 0125043 255.8235 102.9065 14.91075858103221 BIRD-G 1 42821U 98067MV 19136.75535680 .01044831 77811-3 63339-3 0 9991 2 42821 51.6138 75.6202 0003188 206.0118 154.0739 16.17756510106536 TechnoSat 1 42829U 17042E 19136.25703987 .00000295 00000-0 35221-4 0 9993 2 42829 97.5679 30.5222 0014496 165.4171 194.7469 14.90960825 99959 TOMSK-TPU 120 1 42910U 98067MZ 19136.74584722 .00068654 00000-0 34255-3 0 9996 2 42910 51.6360 100.6908 0006328 55.2140 8.9797 15.81190719 99818 TANYUSHA 1 1 42911U 98067NA 19136.78657575 .00140280 18303-4 46083-3 0 9995 2 42911 51.6198 91.7634 0006149 72.0616 7.9146 15.90251314 99917 TANYUSHA 2 1 42912U 98067NB 19136.78499764 .00098612 00000-0 39612-3 0 9992 2 42912 51.6344 96.4838 0005074 73.8420 359.5475 15.85653075 99877 TNS 0-2 1 42914U 98067ND 19136.15249212 .00054216 00000-0 26716-3 0 9999 2 42914 51.6337 104.4687 0005659 50.2848 309.8652 15.81561232 99701 QIKCOM-1 1 42983U 98067NF 19136.62202632 .00003917 00000-0 56521-4 0 9992 2 42983 51.6379 146.2293 0004410 10.0673 350.0407 15.58638608 88186 AO-91 1 43017U 17073E 19135.28587143 .00000610 00000-0 53887-4 0 9992 2 43017 97.7236 57.9891 0256801 270.4981 86.6813 14.78521845 80176 EcAMSat 1 43019U 98067NG 19136.51218977 .00006848 00000-0 86370-4 0 9991 2 43019 51.6387 142.5337 0004880 351.8058 8.2855 15.60884200170543 PICSAT 1 43132U 18004X 19135.74728240 .00001764 00000-0 76902-4 0 9995 2 43132 97.4904 203.6283 0010240 23.8987 336.2723 15.23485695 74337 AO-92 1 43137U 18004AC 19135.14548225 .00001465 00000-0 64575-4 0 9998 2 43137 97.4895 203.0214 0009947 27.5292 332.6470 15.23392603 74235 TianYi 2 1 43155U 18008A 19136.84227550 .00001596 00000-0 98780-4 0 9995 2 43155 97.4881 210.0695 0019347 78.4114 57.3981 15.11090064 72862 Zhou Enlai 1 43156U 18008B 19136.87023330 .00001063 00000-0 68012-4 0 9993 2 43156 97.4926 209.9994 0016590 77.2738 13.4686 15.10592675 72845 TianYi 6 1 43158U 18008D 19136.43729490 .00000672 00000-0 44893-4 0 9993 2 43158 97.4881 209.1002 0014758 71.6944 349.1291 15.10186724 72744 S-Net G 1 43186U 18014G 19136.19644185 -.00000172 00000-0 -99563-5 0 9993 2 43186 97.7116 45.1338 0012212 114.4069 245.8429 14.96627501 70127 S-Net H 1 43187U 18014H 19136.19627247 -.00000181 00000-0 -10769-4 0 9994 2 43187 97.7114 45.1228 0012220 114.3714 245.8785 14.96627631 70128 S-Net J 1 43188U 18014J 19136.19605653 -.00000183 00000-0 -10973-4 0 9991 2 43188 97.7117 45.1382 0012212 114.4406 245.8090 14.96627317 70123 S-Net K 1 43189U 18014K 19136.19638495 -.00000180 00000-0 -10695-4 0 9990 2 43189 97.7114 45.1206 0012207 114.3821 245.8676 14.96627101 68678 FMN 1 1 43192U 18015A 19136.83645873 .00003012 00000-0 12622-3 0 9990 2 43192 97.3931 265.0099 0017861 52.2034 308.0806 15.24158107 71314 Shaonian Xing 1 43199U 18015H 19136.85883927 .00002666 00000-0 11020-3 0 9998 2 43199 97.3721 264.2264 0018824 63.6874 296.6294 15.24701471 71367 1KUNS-PF 1 43466U 98067NP 19136.46749476 .00019302 00000-0 19693-3 0 9996 2 43466 51.6357 142.9310 0002109 24.9985 335.1112 15.65098376 57717 UBAKUSAT 1 43467U 98067NQ 19136.47362000 .00011619 00000-0 13546-3 0 9996 2 43467 51.6357 145.9676 0002454 334.0935 25.9936 15.62154118 57687 Irazu 1 43468U 98067NR 19136.19338304 .00027475 00000-0 25229-3 0 9994 2 43468 51.6352 141.8338 0002501 29.0593 331.0542 15.67498348157694 EnduroSat One 1 43551U 98067NZ 19136.17345344 .00016363 00000-0 18906-3 0 9995 2 43551 51.6363 149.9613 0006962 22.9737 337.1567 15.62022141 47838 EQUISat 1 43552U 98067PA 19135.48904145 .00016415 00000-0 19762-3 0 9998 2 43552 51.6376 154.4041 0007137 19.5882 340.5385 15.60944888 47674 UiTMSat 1 1 43589U 98067PD 19136.26175040 .00014654 00000-0 17685-3 0 9994 2 43589 51.6350 151.2750 0006590 29.2478 330.8884 15.60989129 43522 Maya 1 1 43590U 98067PE 19136.32129428 .00014843 00000-0 17889-3 0 9998 2 43590 51.6350 150.9259 0006643 30.4559 329.6819 15.61011661 43462 Bhutan 1 1 43591U 98067PF 19136.24913132 .00014965 00000-0 17993-3 0 9994 2 43591 51.6359 151.2098 0006891 30.3490 329.7901 15.61065170 43451 SiriusSat 1 1 43595U 98067PG 19136.47508959 .00012728 00000-0 15839-3 0 9992 2 43595 51.6351 151.2014 0004254 358.1062 1.9914 15.60335499 42659 SiriusSat 2 1 43596U 98067PH 19136.50203301 .00013515 00000-0 16879-3 0 9990 2 43596 51.6361 151.4110 0004816 357.0908 3.0056 15.60174956 42650 Tanusha-3 1 43597U 98067PJ 19136.20974362 .00016936 00000-0 19964-3 0 9998 2 43597 51.6344 151.6574 0004692 9.6311 350.4771 15.61483343 42622 SurfSat 1 43614U 18070B 19136.14243077 .00003236 00000-0 88083-4 0 9997 2 43614 93.0258 349.8387 0018887 77.6094 282.7271 15.37393386 37258 CP-7 DAVE 1 43615U 18070C 19136.14653640 .00002999 00000-0 81826-4 0 9992 2 43615 93.0259 349.8422 0019032 77.2505 283.0874 15.37323025 37252 ELFIN-B 1 43616U 18070D 19135.64650825 .00004896 00000-0 13101-3 0 9997 2 43616 93.0225 349.5548 0019919 81.9764 278.3749 15.37872217 37187 ELFIN-A 1 43617U 18070E 19136.68231501 .00004217 00000-0 11278-3 0 9999 2 43617 93.0279 350.1715 0018934 75.8931 284.4425 15.37920073 37346 STARS-Me Mother 1 43640U 98067PQ 19135.50025538 .00011132 00000-0 15197-3 0 9998 2 43640 51.6365 158.9625 0005791 338.0088 22.0655 15.58008497 34399 CubeBel 1 1 43666U 18083E 19136.71795260 .00001157 00000-0 61021-4 0 9990 2 43666 97.5209 161.4197 0013961 308.1720 144.5575 15.17515975 30289 Changshagaoxin 1 43669U 18083H 19136.66561685 .00000867 00000-0 47634-4 0 9990 2 43669 97.5086 160.7740 0009447 300.1545 59.8752 15.16742583 30227 Ten-Koh 1 43677U 18084G 19136.18277642 .00000188 00000-0 25176-4 0 9997 2 43677 97.8474 250.1394 0016898 37.3645 322.8745 14.90158747 29628 PO-101 1 43678U 18084H 19136.73385323 .00000772 00000-0 82634-4 0 9996 2 43678 97.8470 251.1324 0011081 57.9066 302.3248 14.91549993 29734 IRVINE 01 1 43693U 18088D 19136.85807348 .00002449 00000-0 10755-3 0 9993 2 43693 85.0344 339.8046 0017003 319.7925 40.2057 15.21252947 28377 QO-100 1 43700U 18090A 19136.29499935 .00000131 00000-0 00000 0 0 9996 2 43700 0.0094 290.4954 0002344 159.9504 275.2440 1.00271521 1967 Reaktor Hello World 1 43743U 18096AA 19136.74258660 .00002534 00000-0 99312-4 0 9995 2 43743 97.4630 206.7720 0020130 92.5435 60.3873 15.26539530 25700 MinXSS-2 1 43758U 18099A 19136.83215556 .00000394 00000-0 40833-4 0 9997 2 43758 97.7466 209.2702 0017290 78.7615 281.5548 14.95384662 24527 AO-95 1 43770U 18099N 19136.16477241 .00000353 00000-0 37725-4 0 9999 2 43770 97.7468 208.4590 0016254 86.5623 273.7456 14.94744067 24411 RANGE-B 1 43772U 18099Q 19136.15607587 .00000774 00000-0 76264-4 0 9996 2 43772 97.7520 208.5736 0015800 75.6226 284.6747 14.94843705 24401 RANGE-A 1 43773U 18099R 19136.15840466 .00000444 00000-0 46001-4 0 9992 2 43773 97.7415 208.3637 0015150 75.4598 284.8302 14.94786695 24404 MOVE-II 1 43780U 18099Y 19136.20510942 .00000963 00000-0 93166-4 0 9999 2 43780 97.7453 208.5260 0015220 85.6012 274.6947 14.95020037 24404 SNUSat 2 1 43782U 18099AA 19136.19980922 .00000465 00000-0 47724-4 0 9994 2 43782 97.7460 208.5583 0014263 75.6878 284.5925 14.95029220 24417 SnugLite 1 43784U 18099AC 19136.19164650 .00000223 00000-0 25543-4 0 9995 2 43784 97.7427 208.4947 0016639 82.5204 277.7907 14.95107053 24420 ITASat 1 1 43786U 18099AE 19136.18989466 .00000080 00000-0 12575-4 0 9998 2 43786 97.7479 208.6111 0016723 81.4515 278.8599 14.95115963 24429 EAGLET 1 1 43790U 18099AJ 19136.14828680 .00000763 00000-0 73980-4 0 9994 2 43790 97.7472 208.6463 0015147 86.6726 273.6227 14.95493340 24112 ESEO 1 43792U 18099AL 19136.27963369 .00000585 00000-0 57991-4 0 9990 2 43792 97.7452 208.7453 0014936 83.3795 276.9125 14.95495786 24194 CSIM 1 43793U 18099AM 19136.20317547 .00000911 00000-0 86983-4 0 9991 2 43793 97.7410 208.5833 0014698 82.7227 277.5664 14.95651908 24158 Astrocast 0.1 1 43798U 18099AS 19136.18936903 -.00000068 00000-0 -90487-6 0 9997 2 43798 97.7456 208.7172 0013791 68.4395 291.8294 14.95718479 24415 JO-97 1 43803U 18099AX 19136.17752209 .00000006 00000-0 58384-5 0 9997 2 43803 97.7440 208.5341 0016739 82.0222 278.2897 14.95243894 24419 Suomi 100 1 43804U 18099AY 19136.17705875 -.00000003 00000-0 49860-5 0 9992 2 43804 97.7437 208.5325 0016827 82.1634 278.1496 14.95244934 24425 Al Farabi 2 1 43805U 18099AZ 19136.84281256 .00000091 00000-0 13474-4 0 9996 2 43805 97.7440 209.1999 0016857 80.3125 279.9999 14.95295486 24528 PWSat 2 1 43814U 18099BJ 19136.18570028 .00023354 00000-0 19404-2 0 9995 2 43814 97.7709 209.1450 0010495 92.8761 267.3636 14.98690447 23835 CHOMPTT 1 43855U 18104G 19136.23993128 .00002475 00000-0 10510-3 0 9994 2 43855 85.0356 78.5479 0020537 77.9812 282.3738 15.22322754 22937 ISAT 1 43879U 18111D 19135.94758026 .00000602 00000-0 58831-4 0 9990 2 43879 097.7202 044.4391 0014300 132.6357 227.6073 14.95959993020899 UWE-4 1 43880U 18111E 19136.19225551 -.00000070 00000-0 -10523-5 0 9990 2 43880 97.7213 44.7504 0013248 132.1612 228.0737 14.96205380 18941 Sparrow 1 43881U 18111F 19136.18808007 -.00000068 00000-0 -91291-6 0 9992 2 43881 97.7218 44.7625 0013429 130.8207 229.4181 14.96253188 18944 Lume 1 1 43908U 18111AJ 19136.32068617 .00001451 00000-0 61887-4 0 9994 2 43908 97.2925 42.4781 0023392 107.7205 252.6589 15.24263812 21360 FO-98 1 43933U 19003B 19136.73849866 .00000659 00000-0 32138-4 0 9997 2 43933 97.2848 195.3638 0017548 195.4159 263.0540 15.21581090 18041 FO-99 1 43937U 19003F 19136.85626081 .00001898 00000-0 81876-4 0 9995 2 43937 97.2798 195.7158 0023892 184.4948 264.8506 15.23488298 18086 Delphini 1 1 44030U 98067PW 19136.47109476 .00010803 00000-0 15917-3 0 9997 2 44030 51.6371 157.1945 0005557 25.0259 335.1001 15.55970578 16375 MYSat 1 1 44045U 18092F 19135.53741008 .00001989 00000-0 69219-4 0 9992 2 44045 51.6417 176.2807 0011739 325.5622 34.4618 15.34774247 13992 AstroCast 0.2 1 44083U 19018F 19136.39405751 .00000724 00000-0 35393-4 0 9992 2 44083 97.4713 196.6366 0015489 121.8121 238.4625 15.21341914 6852 AISTechSat 3 1 44103U 19018AB 19136.22692343 .00001322 00000-0 59866-4 0 9998 2 44103 97.4591 196.4642 0014820 139.4478 220.7866 15.22565554 6829 AISat 1 1 44104U 19018AC 19136.25870082 .00001272 00000-0 43787-4 0 9999 2 44104 97.5122 197.3008 0059172 183.6283 176.4537 15.30399564 6895 /EX
